Location: Pasadena-CA
(34.1440°N, 118.1100°W)
Time: 23:31:38
(UTC-07:00)

ISS - Visible Passes

Search period start: 22 September 2023 00:00
Search period end: 02 October 2023 00:00
Orbit: 414 x 422 km, 51.6° (Epoch: 22 September)

Date Brightness Start Highest point End Pass type
(mag) Time Alt. Az. Time Alt. Az. Time Alt. Az.
28 Sep -1.1 20:27:02 10° N 20:27:46 13° N 20:27:46 13° N visible
29 Sep -1.3 19:39:45 10° N 19:40:51 11° NNE 19:41:33 11° NE visible
30 Sep -1.9 20:26:38 10° NNW 20:28:18 24° NNW 20:28:18 24° NNW visible
01 Oct -2.4 19:38:42 10° NNW 19:41:29 24° NE 19:42:12 22° NE visible
